Hourly Weather Rudavka

Today, 15 April, Thursday

Time Temperature Precipitation Wind Pressure Humidity
00:00 +7°C° 0.3 mm 2 mps 744 mmHg 97%
01:00 +7°C° 0.3 mm 2 mps 744 mmHg 97%
02:00 +7°C° 0.3 mm 2 mps 744 mmHg 98%
03:00 +7°C° 0.2 mm 2 mps 744 mmHg 97%
04:00 +7°C° 0.2 mm 2 mps 744 mmHg 97%
05:00 +7°C° 0.2 mm 2 mps 744 mmHg 97%
06:00 +7°C° 0 mm 2 mps 744 mmHg 96%
07:00 +7°C° 0 mm 2 mps 744 mmHg 95%
08:00 +8°C° 0 mm 2 mps 745 mmHg 93%
09:00 +8°C° 0 mm 2 mps 744 mmHg 90%
10:00 +9°C° 0 mm 3 mps 744 mmHg 88%
11:00 +8°C° 0 mm 4 mps 744 mmHg 85%
12:00 +8°C° 0.2 mm 4 mps 744 mmHg 86%
13:00 +7°C° 0.2 mm 4 mps 744 mmHg 87%
14:00 +7°C° 0.2 mm 4 mps 744 mmHg 88%
15:00 +6°C° 1.1 mm 4 mps 744 mmHg 90%
16:00 +5°C° 1.1 mm 4 mps 744 mmHg 92%
17:00 +4°C° 1.1 mm 4 mps 744 mmHg 94%
18:00 +4°C° 0.7 mm 4 mps 743 mmHg 94%
19:00 +4°C° 0.7 mm 4 mps 743 mmHg 94%
20:00 +4°C° 0.7 mm 4 mps 743 mmHg 95%
21:00 +4°C° 1.3 mm 4 mps 743 mmHg 95%
22:00 +4°C° 1.3 mm 4 mps 742 mmHg 96%
23:00 +4°C° 1.3 mm 4 mps 742 mmHg 96%

Tomorrow, 16 April, Friday

Time Temperature Precipitation Wind Pressure Humidity
00:00 +5°C° 0.7 mm 4 mps 742 mmHg 96%
01:00 +5°C° 0.7 mm 4 mps 742 mmHg 96%
02:00 +5°C° 0.7 mm 4 mps 742 mmHg 97%
03:00 +5°C° 0 mm 3 mps 742 mmHg 97%
04:00 +7°C° 0 mm 3 mps 742 mmHg 97%
05:00 +7°C° 0 mm 3 mps 742 mmHg 97%
06:00 +8°C° 0 mm 3 mps 742 mmHg 93%
07:00 +7°C° 0 mm 4 mps 742 mmHg 90%
08:00 +8°C° 0 mm 4 mps 743 mmHg 86%
09:00 +8°C° 0.8 mm 4 mps 743 mmHg 88%
10:00 +9°C° 0.8 mm 3 mps 743 mmHg 89%
11:00 +9°C° 0.8 mm 3 mps 743 mmHg 90%
12:00 +10°C° 0.6 mm 4 mps 743 mmHg 83%
13:00 +11°C° 0.6 mm 4 mps 743 mmHg 75%
14:00 +13°C° 0.6 mm 5 mps 743 mmHg 68%
15:00 +12°C° 0.2 mm 5 mps 743 mmHg 69%
16:00 +12°C° 0.2 mm 5 mps 743 mmHg 70%
17:00 +12°C° 0.2 mm 4 mps 743 mmHg 70%
18:00 +10°C° 0 mm 4 mps 744 mmHg 76%
19:00 +9°C° 0 mm 3 mps 744 mmHg 82%
20:00 +7°C° 0 mm 2 mps 745 mmHg 88%
21:00 +7°C° 0.1 mm 2 mps 745 mmHg 90%
22:00 +8°C° 0.1 mm 1 mps 745 mmHg 92%
23:00 +7°C° 0.1 mm 1 mps 745 mmHg 93%

Day after tomorrow, 17 April, Saturday

Time Temperature Precipitation Wind Pressure Humidity
00:00 +7°C° 0 mm 1 mps 745 mmHg 94%
01:00 +6°C° 0 mm 2 mps 745 mmHg 94%
02:00 +5°C° 0 mm 2 mps 746 mmHg 95%
03:00 +5°C° 0 mm 2 mps 746 mmHg 95%
04:00 +5°C° 0 mm 2 mps 746 mmHg 95%
05:00 +5°C° 0 mm 2 mps 746 mmHg 95%
06:00 +6°C° 0 mm 2 mps 747 mmHg 93%
07:00 +7°C° 0 mm 2 mps 747 mmHg 91%
08:00 +7°C° 0 mm 2 mps 747 mmHg 90%
09:00 +8°C° 0 mm 2 mps 748 mmHg 84%
10:00 +9°C° 0 mm 2 mps 748 mmHg 79%
11:00 +12°C° 0 mm 2 mps 748 mmHg 74%
12:00 +12°C° 0.3 mm 2 mps 748 mmHg 71%
13:00 +13°C° 0.3 mm 2 mps 748 mmHg 68%
14:00 +12°C° 0.3 mm 3 mps 748 mmHg 65%
15:00 +13°C° 0.2 mm 2 mps 748 mmHg 67%
16:00 +13°C° 0.2 mm 2 mps 748 mmHg 68%
17:00 +13°C° 0.2 mm 2 mps 748 mmHg 69%
18:00 +12°C° 0 mm 2 mps 748 mmHg 75%
19:00 +9°C° 0 mm 2 mps 749 mmHg 81%
20:00 +8°C° 0 mm 2 mps 749 mmHg 86%
21:00 +8°C° 0 mm 2 mps 749 mmHg 87%
22:00 +7°C° 0 mm 2 mps 749 mmHg 88%
23:00 +7°C° 0 mm 2 mps 749 mmHg 89%

18 April, Sunday

Time Temperature Precipitation Wind Pressure Humidity
00:00 +6°C° 0.2 mm 2 mps 749 mmHg 89%
01:00 +7°C° 0.2 mm 1 mps 749 mmHg 90%
02:00 +7°C° 0.2 mm 1 mps 749 mmHg 90%
03:00 +6°C° 0 mm 1 mps 749 mmHg 90%
04:00 +6°C° 0 mm 1 mps 749 mmHg 90%
05:00 +6°C° 0 mm 1 mps 749 mmHg 90%
06:00 +6°C° 0 mm 1 mps 749 mmHg 86%
07:00 +7°C° 0 mm 1 mps 750 mmHg 82%
08:00 +7°C° 0 mm 2 mps 750 mmHg 78%
09:00 +8°C° 0 mm 2 mps 750 mmHg 72%
10:00 +9°C° 0 mm 2 mps 750 mmHg 67%
11:00 +12°C° 0 mm 2 mps 750 mmHg 61%
12:00 +13°C° 0 mm 2 mps 750 mmHg 58%
13:00 +13°C° 0 mm 2 mps 750 mmHg 55%
14:00 +14°C° 0 mm 1 mps 750 mmHg 51%
15:00 +14°C° 0 mm 2 mps 750 mmHg 52%
16:00 +14°C° 0 mm 2 mps 750 mmHg 54%
17:00 +14°C° 0 mm 2 mps 749 mmHg 55%
18:00 +12°C° 0 mm 3 mps 750 mmHg 62%
19:00 +10°C° 0 mm 3 mps 750 mmHg 70%
20:00 +9°C° 0 mm 3 mps 750 mmHg 77%
21:00 +9°C° 0 mm 3 mps 750 mmHg 80%
22:00 +9°C° 0 mm 3 mps 750 mmHg 84%
23:00 +8°C° 0 mm 3 mps 750 mmHg 87%

19 April, Monday

Time Temperature Precipitation Wind Pressure Humidity
00:00 +8°C° 0 mm 3 mps 750 mmHg 87%
01:00 +8°C° 0 mm 3 mps 750 mmHg 88%
02:00 +7°C° 0 mm 3 mps 750 mmHg 89%
03:00 +7°C° 0 mm 3 mps 749 mmHg 89%
04:00 +7°C° 0 mm 3 mps 749 mmHg 90%
05:00 +6°C° 0 mm 4 mps 749 mmHg 90%
06:00 +7°C° 0.1 mm 4 mps 749 mmHg 89%
07:00 +8°C° 0.1 mm 4 mps 748 mmHg 87%
08:00 +10°C° 0.1 mm 4 mps 748 mmHg 85%
09:00 +10°C° 0.3 mm 5 mps 748 mmHg 80%
10:00 +11°C° 0.3 mm 6 mps 748 mmHg 75%
11:00 +13°C° 0.3 mm 6 mps 747 mmHg 70%
12:00 +13°C° 0.4 mm 6 mps 747 mmHg 70%
13:00 +11°C° 0.4 mm 6 mps 747 mmHg 70%
14:00 +11°C° 0.4 mm 6 mps 746 mmHg 71%
15:00 +11°C° 0.2 mm 6 mps 746 mmHg 70%
16:00 +11°C° 0.2 mm 6 mps 746 mmHg 70%
17:00 +11°C° 0.2 mm 6 mps 745 mmHg 70%
18:00 +10°C° 0.4 mm 6 mps 745 mmHg 76%
19:00 +9°C° 0.4 mm 5 mps 745 mmHg 82%
20:00 +8°C° 0.4 mm 5 mps 744 mmHg 88%
21:00 +8°C° 0.2 mm 5 mps 744 mmHg 88%
22:00 +8°C° 0.2 mm 5 mps 743 mmHg 89%
23:00 +8°C° 0.2 mm 6 mps 743 mmHg 90%

20 April, Tuesday

Time Temperature Precipitation Wind Pressure Humidity
00:00 +8°C° 0.3 mm 6 mps 742 mmHg 90%
01:00 +8°C° 0.3 mm 6 mps 741 mmHg 91%
02:00 +8°C° 0.3 mm 7 mps 741 mmHg 91%
03:00 +6°C° 0.7 mm 7 mps 740 mmHg 91%
04:00 +6°C° 0.7 mm 7 mps 740 mmHg 91%
05:00 +6°C° 0.7 mm 7 mps 739 mmHg 92%
06:00 +6°C° 0.7 mm 8 mps 738 mmHg 91%
07:00 +5°C° 0.7 mm 8 mps 738 mmHg 91%
08:00 +5°C° 0.7 mm 8 mps 737 mmHg 90%
09:00 +4°C° 0.7 mm 8 mps 737 mmHg 92%
10:00 +4°C° 0.7 mm 8 mps 736 mmHg 94%
11:00 +3°C° 0.7 mm 7 mps 736 mmHg 95%
12:00 +3°C° 0.3 mm 7 mps 735 mmHg 95%
13:00 +2°C° 0.3 mm 7 mps 735 mmHg 95%
14:00 +2°C° 0.3 mm 7 mps 734 mmHg 95%
15:00 +2°C° 1.1 mm 7 mps 734 mmHg 96%
16:00 +1°C° 1.1 mm 6 mps 734 mmHg 96%
17:00 -1°C° 1.1 mm 6 mps 733 mmHg 97%
18:00 0°C° 1.6 mm 5 mps 733 mmHg 97%
19:00 0°C° 1.6 mm 5 mps 732 mmHg 97%
20:00 0°C° 1.6 mm 4 mps 732 mmHg 97%
21:00 0°C° 0.8 mm 4 mps 732 mmHg 97%
22:00 +1°C° 0.8 mm 4 mps 731 mmHg 97%
23:00 +2°C° 0.8 mm 3 mps 731 mmHg 98%
Show more